Regional Weather Roundup
Issued by NWS

Home | Current Version | Previous Version | Text Only | Print | Product List | Glossary Off
Versions: 1 2 3 4 5 6 7 8 9 10 11 12 13 14 15 16 17 18 19 20 21 22 23 24 25 26 27 28 29 30 31 32 33 34 35 36 37 38 39 40 41 42 43 44 45 46 47 48 49 50

011
ASUS43 KOAX 220710
RWRNE

WEATHER ROUNDUP FOR NEBRASKA
NATIONAL WEATHER SERVICE OMAHA NE
200 AM CDT THU JUN 22 2017

NOTES: SATELLITE DATA IS BEING USED TO AUGMENT CLOUD COVER ABOVE
       12000 FEET.
       "FAIR" INDICATES FEW OR NO CLOUDS BELOW 12,000 FEET WITH NO
       SIGNIFICANT WEATHER AND/OR OBSTRUCTIONS TO VISIBILITY.

  * THESE STATIONS DO NOT REPORT WEATHER SUCH AS RAIN...SNOW OR FOG.

NEZ001>004-019>022-054>056-220800-
NEBRASKA PANHANDLE

CITY           SKY/WX    TMP DP  RH WIND       PRES   REMARKS
SCOTTSBLUFF    PTCLDY    72  50  45 SE5       29.75F
ALLIANCE       CLOUDY    61  53  75 S8        29.74F
CHADRON        PTCLDY    64  55  72 CALM      29.72F
GORDON         FAIR      65  56  74 E3        29.74S
KIMBALL        PTCLDY    69  44  40 SW6       29.87F
SIDNEY         PTCLDY    67  46  47 SW10      29.83F
$$

NEZ057>060-069>072-079>082-220800-
SOUTHWEST NEBRASKA

CITY           SKY/WX    TMP DP  RH WIND       PRES   REMARKS
NORTH PLATTE   CLOUDY    79  63  57 SE13G18   29.73S
IMPERIAL       CLEAR     68  52  56 S5        29.77R
LEXINGTON      CLEAR     78  60  54 S20G29    29.74S
MCCOOK         CLEAR     76  56  49 S14       29.77R
OGALLALA       CLEAR     73  55  53 CALM      29.75F
$$

NEZ005>010-023>029-035>040-094-220800-
NORTH CENTRAL NEBRASKA

CITY           SKY/WX    TMP DP  RH WIND       PRES   REMARKS
VALENTINE      CLEAR     73  60  63 NE3       29.71S
AINSWORTH      CLEAR     69  65  87 SE8       29.71S
BROKEN BOW     CLEAR     75  67  76 SW6       29.72S
O`NEILL        CLEAR     74  68  82 E7        29.69S
ORD            CLEAR     75  65  70 CALM      29.68S
THEDFORD       CLEAR     69  61  75 CALM      29.72F
$$

NEZ041-046>049-061>064-073>077-083>087-220800-
SOUTH CENTRAL NEBRASKA

CITY           SKY/WX    TMP DP  RH WIND       PRES   REMARKS
GRAND ISLAND   CLOUDY    77  56  48 SW9       29.67F
AURORA         MOCLDY    74  59  59 S3        29.67F
HASTINGS       CLOUDY    75  54  47 W6        29.69F
HEBRON         CLOUDY    83  53  35 S18G32    29.67F
HOLDREGE       CLEAR     75  56  51 S15G22    29.74S
KEARNEY *      CLEAR     77  54  44 S21       29.71F
YORK           CLOUDY    79  55  44 S9        29.68F
$$

NEZ011>018-030>034-042>045-220800-
NORTHEAST NEBRASKA

CITY           SKY/WX    TMP DP  RH WIND       PRES   REMARKS
NORFOLK        CLOUDY    80  58  46 S12       29.66S
ALBION         PTCLDY    80  62  54 CALM      29.67F
BLAIR          CLOUDY    80  62  53 S16G23    29.70F
FREMONT        CLOUDY    81  59  47 S13       29.69F
TEKAMAH        CLEAR     80  59  48 S13       29.67F
WAYNE          CLOUDY    79  61  52 SW6       29.67R
$$

NEZ050>053-065>068-078-088>093-220800-
SOUTHEAST NEBRASKA

CITY           SKY/WX    TMP DP  RH WIND       PRES   REMARKS
LINCOLN        CLOUDY    81  61  50 S17       29.70F
OMAHA EPPLEY   CLOUDY    82  63  52 S15       29.71F
BEATRICE       CLOUDY    79  61  52 S17G25    29.72F
FALLS CITY     PTCLDY    78  61  55 S10       29.78S
NEBRASKA CITY  CLOUDY    78  62  57 S16G23    29.75F
PLATTSMOUTH    PTCLDY    78  61  55 S15G21    29.73F
$$

NEZ044-045-051>053-067-220800-
OMAHA AREA

CITY           SKY/WX    TMP DP  RH WIND       PRES   REMARKS
OMAHA EPPLEY   CLOUDY    82  63  52 S15       29.71F
BLAIR          CLOUDY    80  62  53 S16G23    29.70F
FREMONT        CLOUDY    81  59  47 S13       29.69F
MILLARD        CLOUDY    82  65  55 S8        29.71F
OFFUTT AFB     PTCLDY    79  62  55 S14       29.71F
PLATTSMOUTH    PTCLDY    78  61  55 S15G21    29.73F
WAHOO          FAIR      80  58  46 S15G21    29.69F
$$




USA.gov is the U.S. government's official web portal to all federal, state and local government web resources and services.